�������l�o���
Date,Time,MP-1(��Sv/h),MP-2(��Sv/h),MP-3(��Sv/h),MP-4(��Sv/h),MP-5(��Sv/h),MP-6(��Sv/h),MP-7(��Sv/h),MP-8(��Sv/h),����,����(m/s),���J
2018/03/12,00:00,0.834,1.400,0.873,1.634,1.092,0.476,0.840,0.812,���쐼,5.2,��
2018/03/12,00:10,0.834,1.401,0.872,1.637,1.090,0.476,0.841,0.812,�쐼,5.0,��
2018/03/12,00:20,0.833,1.400,0.869,1.634,1.089,0.476,0.840,0.810,���쐼,5.2,��
2018/03/12,00:30,0.833,1.400,0.871,1.634,1.090,0.476,0.842,0.810,���쐼,4.8,��
2018/03/12,00:40,0.835,1.399,0.870,1.634,1.091,0.476,0.840,0.811,��,5.4,��
2018/03/12,00:50,0.834,1.399,0.871,1.635,1.091,0.476,0.841,0.812,��,5.1,��
2018/03/12,01:00,0.834,1.400,0.871,1.632,1.089,0.477,0.842,0.811,��,4.9,��
2018/03/12,01:10,0.833,1.399,0.870,1.632,1.091,0.477,0.840,0.810,��,5.0,��
2018/03/12,01:20,0.834,1.401,0.868,1.633,1.091,0.476,0.841,0.812,��,5.4,��
2018/03/12,01:30,0.832,1.400,0.870,1.631,1.091,0.474,0.840,0.810,��,4.2,��
2018/03/12,01:40,0.832,1.399,0.871,1.635,1.090,0.475,0.841,0.810,���k��,2.6,��
2018/03/12,01:50,0.831,1.401,0.871,1.634,1.091,0.475,0.842,0.810,�k��,2.0,��
2018/03/12,02:00,0.832,1.399,0.868,1.634,1.092,0.476,0.841,0.811,��,1.9,��
2018/03/12,02:10,0.832,1.398,0.868,1.635,1.090,0.478,0.840,0.810,��,2.3,��
2018/03/12,02:20,0.833,1.400,0.869,1.635,1.090,0.475,0.840,0.810,���k��,2.0,��
2018/03/12,02:30,0.834,1.398,0.868,1.630,1.090,0.476,0.840,0.809,��,2.2,��
2018/03/12,02:40,0.833,1.398,0.870,1.633,1.090,0.474,0.840,0.811,���쐼,2.3,��
2018/03/12,02:50,0.832,1.400,0.868,1.633,1.089,0.474,0.839,0.810,��,2.2,��
2018/03/12,03:00,0.831,1.400,0.868,1.635,1.090,0.474,0.839,0.811,���k��,2.5,��
2018/03/12,03:10,0.833,1.400,0.870,1.632,1.090,0.475,0.841,0.809,���k��,2.6,��
2018/03/12,03:20,0.832,1.397,0.867,1.633,1.092,0.475,0.839,0.812,�k��,1.5,��
2018/03/12,03:30,0.830,1.401,0.868,1.634,1.090,0.475,0.841,0.810,�k��,1.7,��
2018/03/12,03:40,0.834,1.399,0.870,1.634,1.090,0.476,0.839,0.810,�k�k��,1.9,��
2018/03/12,03:50,0.831,1.400,0.870,1.634,1.090,0.474,0.838,0.811,�k��,2.9,��
2018/03/12,04:00,0.833,1.400,0.869,1.635,1.088,0.475,0.840,0.809,�k��,3.7,��
2018/03/12,04:10,0.831,1.400,0.868,1.633,1.092,0.475,0.840,0.811,�k��,3.8,��
2018/03/12,04:20,0.832,1.396,0.870,1.633,1.090,0.475,0.839,0.811,�k��,3.7,��
2018/03/12,04:30,0.831,1.402,0.869,1.631,1.090,0.474,0.840,0.808,�k��,4.1,��
2018/03/12,04:40,0.832,1.402,0.873,1.634,1.090,0.474,0.839,0.810,�k��,4.9,��
2018/03/12,04:50,0.833,1.400,0.869,1.632,1.092,0.474,0.840,0.811,�k�k��,5.0,��
2018/03/12,05:00,0.831,1.402,0.868,1.635,1.091,0.475,0.841,0.811,�k��,4.0,��
2018/03/12,05:10,0.832,1.399,0.869,1.634,1.092,0.474,0.840,0.809,�k��,3.8,��
2018/03/12,05:20,0.831,1.402,0.869,1.632,1.092,0.474,0.840,0.810,�k��,3.5,��
2018/03/12,05:30,0.832,1.400,0.869,1.632,1.092,0.475,0.840,0.811,�k��,2.6,��
2018/03/12,05:40,0.830,1.399,0.871,1.630,1.091,0.474,0.840,0.810,�k��,3.3,��
2018/03/12,05:50,0.832,1.400,0.870,1.634,1.093,0.474,0.840,0.810,�k��,2.8,��
2018/03/12,06:00,0.832,1.400,0.868,1.631,1.092,0.474,0.840,0.810,�k��,2.6,��
2018/03/12,06:10,0.830,1.401,0.871,1.635,1.091,0.474,0.840,0.809,���k��,2.3,��
2018/03/12,06:20,0.831,1.402,0.868,1.634,1.091,0.476,0.840,0.810,�k��,2.2,��
2018/03/12,06:30,0.830,1.400,0.867,1.632,1.092,0.473,0.841,0.809,���k��,2.3,��
2018/03/12,06:40,0.830,1.398,0.871,1.634,1.090,0.474,0.841,0.810,���k��,3.4,��
2018/03/12,06:50,0.832,1.399,0.869,1.632,1.091,0.474,0.840,0.810,�k��,3.7,��
2018/03/12,07:00,0.830,1.400,0.870,1.636,1.092,0.475,0.838,0.810,�k��,3.6,��
2018/03/12,07:10,0.831,1.399,0.869,1.634,1.090,0.473,0.840,0.808,�k��,3.2,��
2018/03/12,07:20,0.829,1.400,0.869,1.634,1.091,0.473,0.840,0.811,�k��,2.9,��
2018/03/12,07:30,0.831,1.401,0.870,1.635,1.090,0.475,0.839,0.811,�k��,3.5,��
2018/03/12,07:40,0.832,1.399,0.866,1.635,1.094,0.473,0.840,0.810,�k��,2.6,��
2018/03/12,07:50,0.832,1.399,0.870,1.637,1.093,0.473,0.840,0.810,�k��,3.0,��
2018/03/12,08:00,0.833,1.399,0.866,1.637,1.093,0.476,0.840,0.810,�k��,4.3,��
2018/03/12,08:10,0.831,1.404,0.869,1.636,1.093,0.473,0.839,0.810,�k��,4.2,��
2018/03/12,08:20,0.832,1.400,0.869,1.635,1.095,0.474,0.841,0.811,�k��,3.8,��
2018/03/12,08:30,0.832,1.401,0.869,1.634,1.096,0.474,0.841,0.811,�k�k��,3.7,��
2018/03/12,08:40,0.833,1.403,0.868,1.635,1.092,0.474,0.840,0.812,�k�k��,4.3,��
2018/03/12,08:50,0.835,1.402,0.868,1.636,1.092,0.476,0.838,0.813,�k�k��,5.8,��
2018/03/12,09:00,0.834,1.403,0.868,1.635,1.092,0.474,0.837,0.811,�k�k��,5.2,��
2018/03/12,09:10,0.835,1.399,0.869,1.638,1.096,0.475,0.838,0.810,�k�k��,4.1,��
2018/03/12,09:20,0.835,1.404,0.869,1.638,1.095,0.475,0.839,0.812,�k��,2.9,��
2018/03/12,09:30,0.837,1.402,0.871,1.636,1.098,0.473,0.840,0.812,�k��,3.6,��
2018/03/12,09:40,0.837,1.403,0.869,1.641,1.098,0.475,0.838,0.813,�k��,3.1,��
2018/03/12,09:50,0.836,1.403,0.869,1.639,1.097,0.476,0.841,0.813,�k,2.3,��
2018/03/12,10:00,0.834,1.400,0.869,1.639,1.098,0.475,0.840,0.811,�k��,3.6,��
2018/03/12,10:10,0.836,1.400,0.872,1.638,1.097,0.476,0.837,0.809,�k��,4.0,��
2018/03/12,10:20,0.836,1.401,0.872,1.636,1.087,0.475,0.840,0.810,�k��,4.2,��
2018/03/12,10:30,0.837,1.397,0.870,1.641,1.083,0.475,0.841,0.811,�k��,4.6,��
2018/03/12,10:40,0.837,1.398,0.872,1.639,1.087,0.475,0.840,0.811,�k�k��,4.8,��
2018/03/12,10:50,0.836,1.399,0.873,1.636,1.092,0.474,0.842,0.809,�k��,5.7,��
2018/03/12,11:00,0.838,1.403,0.874,1.640,1.092,0.475,0.839,0.809,�k�k��,5.2,��
2018/03/12,11:10,0.837,1.402,0.871,1.638,1.094,0.476,0.840,0.811,�k��,5.5,��
2018/03/12,11:20,0.837,1.407,0.872,1.642,1.097,0.475,0.839,0.809,�k�k��,5.2,��
2018/03/12,11:30,0.839,1.408,0.872,1.640,1.092,0.475,0.840,0.811,�k��,6.0,��
2018/03/12,11:40,0.839,1.406,0.872,1.639,1.093,0.475,0.839,0.812,�k��,5.6,��
2018/03/12,11:50,0.838,1.408,0.874,1.642,1.095,0.475,0.840,0.812,�k��,5.2,��
2018/03/12,12:00,0.836,1.403,0.874,1.643,1.093,0.475,0.841,0.813,���k��,2.6,��
2018/03/12,12:10,0.838,1.406,0.874,1.643,1.098,0.473,0.842,0.812,��,4.3,��
2018/03/12,12:20,0.839,1.409,0.876,1.638,1.096,0.476,0.842,0.813,��,3.2,��
2018/03/12,12:30,0.840,1.407,0.874,1.645,1.098,0.475,0.840,0.813,���k��,2.0,��
2018/03/12,12:40,0.842,1.407,0.876,1.641,1.098,0.477,0.841,0.813,�쓌,2.3,��
2018/03/12,12:50,0.841,1.407,0.874,1.643,1.100,0.477,0.842,0.813,��,4.4,��
2018/03/12,13:00,0.842,1.409,0.875,1.642,1.099,0.477,0.842,0.812,��,4.0,��
2018/03/12,13:10,0.842,1.405,0.872,1.642,1.099,0.477,0.842,0.813,��,7.0,��
2018/03/12,13:20,0.839,1.403,0.873,1.642,1.098,0.478,0.842,0.813,���쐼,6.1,��
2018/03/12,13:30,0.840,1.407,0.872,1.643,1.098,0.478,0.844,0.810,��,6.1,��
2018/03/12,13:40,0.851,1.405,0.873,1.642,1.095,0.478,0.841,0.812,���k��,5.6,��
2018/03/12,13:50,0.843,1.407,0.874,1.641,1.095,0.478,0.842,0.810,���쐼,5.0,��
2018/03/12,14:00,0.841,1.409,0.875,1.643,1.096,0.478,0.842,0.809,��,6.3,��
2018/03/12,14:10,0.842,1.411,0.876,1.644,1.095,0.478,0.841,0.812,��,6.1,��
2018/03/12,14:20,0.844,1.408,0.877,1.641,1.095,0.478,0.843,0.811,��,5.5,��
2018/03/12,14:30,0.843,1.412,0.877,1.643,1.097,0.479,0.843,0.811,���쐼,6.5,��
2018/03/12,14:40,0.844,1.412,0.877,1.646,1.097,0.476,0.843,0.811,��,6.8,��
2018/03/12,14:50,0.843,1.412,0.877,1.646,1.097,0.478,0.844,0.811,��,7.3,��
2018/03/12,15:00,0.842,1.411,0.878,1.646,1.099,0.477,0.842,0.810,��,5.3,��
2018/03/12,15:10,0.841,1.413,0.877,1.647,1.099,0.479,0.845,0.812,��,4.7,��
2018/03/12,15:20,0.840,1.412,0.877,1.648,1.099,0.477,0.842,0.813,���쐼,4.5,��
2018/03/12,15:30,0.842,1.412,0.878,1.649,1.100,0.479,0.843,0.811,���쐼,3.9,��
2018/03/12,15:40,0.840,1.413,0.879,1.648,1.100,0.479,0.841,0.812,��,5.6,��
2018/03/12,15:50,0.842,1.410,0.879,1.648,1.098,0.480,0.844,0.812,�k��,2.0,��
2018/03/12,16:00,0.842,1.412,0.880,1.647,1.101,0.478,0.843,0.811,-,CALM,��
2018/03/12,16:10,0.842,1.416,0.881,1.648,1.100,0.479,0.841,0.813,�k��,2.3,��
2018/03/12,16:20,0.841,1.415,0.878,1.649,1.098,0.480,0.841,0.814,�k�k��,3.8,��
2018/03/12,16:30,0.839,1.414,0.879,1.650,1.101,0.479,0.840,0.815,�k��,3.0,��
2018/03/12,16:40,0.840,1.417,0.877,1.647,1.102,0.478,0.843,0.814,�k�k��,2.0,��
2018/03/12,16:50,0.840,1.416,0.880,1.647,1.103,0.479,0.841,0.813,�쐼,1.5,��
2018/03/12,17:00,0.840,1.415,0.879,1.647,1.102,0.478,0.842,0.815,���쐼,2.6,��
2018/03/12,17:10,0.841,1.415,0.880,1.646,1.103,0.479,0.845,0.813,��,2.8,��
2018/03/12,17:20,0.841,1.413,0.878,1.648,1.104,0.477,0.845,0.813,��,2.6,��
2018/03/12,17:30,0.839,1.416,0.878,1.648,1.107,0.480,0.843,0.816,�k��,1.2,��
2018/03/12,17:40,0.838,1.415,0.878,1.645,1.106,0.479,0.845,0.814,���쓌,0.8,��
2018/03/12,17:50,0.840,1.415,0.878,1.647,1.104,0.478,0.844,0.813,��,2.6,��
2018/03/12,18:00,0.841,1.413,0.879,1.649,1.105,0.478,0.843,0.813,���k��,1.7,��
2018/03/12,18:10,0.841,1.415,0.878,1.648,1.106,0.476,0.843,0.815,��,1.2,��
2018/03/12,18:20,0.840,1.416,0.879,1.647,1.104,0.478,0.845,0.815,��,1.7,��
2018/03/12,18:30,0.841,1.414,0.877,1.646,1.106,0.477,0.844,0.813,�k��,0.8,��
2018/03/12,18:40,0.840,1.415,0.878,1.644,1.105,0.476,0.844,0.814,���k��,1.5,��
2018/03/12,18:50,0.838,1.414,0.879,1.646,1.105,0.479,0.842,0.813,��,1.9,��
2018/03/12,19:00,0.840,1.413,0.878,1.645,1.104,0.476,0.842,0.811,���쐼,2.0,��
2018/03/12,19:10,0.840,1.411,0.879,1.644,1.103,0.476,0.843,0.813,���쐼,1.7,��
2018/03/12,19:20,0.838,1.414,0.876,1.647,1.105,0.478,0.843,0.812,��,3.8,��
2018/03/12,19:30,0.839,1.415,0.877,1.645,1.106,0.477,0.842,0.810,��,3.9,��
2018/03/12,19:40,0.839,1.414,0.878,1.646,1.103,0.476,0.842,0.811,��,5.6,��
2018/03/12,19:50,0.839,1.414,0.876,1.648,1.105,0.477,0.842,0.812,��,5.7,��
2018/03/12,20:00,0.839,1.411,0.878,1.646,1.106,0.477,0.842,0.812,��,5.9,��
2018/03/12,20:10,0.838,1.415,0.879,1.646,1.108,0.477,0.840,0.812,��,5.4,��
2018/03/12,20:20,0.839,1.413,0.877,1.644,1.105,0.476,0.840,0.811,��,4.6,��
2018/03/12,20:30,0.842,1.415,0.878,1.647,1.104,0.475,0.842,0.813,��,4.7,��
2018/03/12,20:40,0.839,1.413,0.878,1.647,1.103,0.476,0.842,0.813,��,4.5,��
2018/03/12,20:50,0.840,1.412,0.878,1.645,1.104,0.477,0.841,0.810,���k��,4.4,��
2018/03/12,21:00,0.838,1.413,0.879,1.645,1.105,0.477,0.841,0.811,�k��,2.9,��
2018/03/12,21:10,0.838,1.412,0.877,1.646,1.104,0.475,0.844,0.811,�k��,3.9,��
2018/03/12,21:20,0.838,1.412,0.876,1.645,1.104,0.477,0.842,0.812,�k�k��,4.1,��
2018/03/12,21:30,0.837,1.412,0.879,1.643,1.105,0.478,0.843,0.813,�k�k��,4.7,��
2018/03/12,21:40,0.838,1.413,0.876,1.646,1.104,0.476,0.841,0.812,�k��,6.2,��
2018/03/12,21:50,0.840,1.413,0.878,1.643,1.107,0.475,0.843,0.813,�k�k��,4.1,��
2018/03/12,22:00,0.839,1.413,0.878,1.644,1.104,0.476,0.843,0.811,�k��,5.6,��
2018/03/12,22:10,0.840,1.416,0.875,1.643,1.107,0.477,0.842,0.810,�k��,3.2,��
2018/03/12,22:20,0.839,1.412,0.877,1.645,1.105,0.476,0.841,0.811,���k��,2.6,��
2018/03/12,22:30,0.839,1.414,0.876,1.646,1.104,0.475,0.842,0.810,���쐼,3.2,��
2018/03/12,22:40,0.839,1.414,0.878,1.644,1.106,0.475,0.843,0.812,���쐼,2.0,��
2018/03/12,22:50,0.840,1.414,0.877,1.646,1.103,0.475,0.842,0.813,�쐼,2.6,��
2018/03/12,23:00,0.838,1.411,0.878,1.643,1.104,0.474,0.842,0.812,��,3.8,��
2018/03/12,23:10,0.839,1.411,0.876,1.644,1.104,0.475,0.843,0.811,��쓌,4.1,��
2018/03/12,23:20,0.838,1.412,0.879,1.642,1.104,0.476,0.842,0.813,��쓌,2.2,��
2018/03/12,23:30,0.838,1.414,0.877,1.646,1.105,0.475,0.841,0.811,��,3.4,��
2018/03/12,23:40,0.838,1.410,0.877,1.642,1.106,0.475,0.842,0.811,��,2.0,��
2018/03/12,23:50,0.837,1.412,0.876,1.643,1.104,0.477,0.841,0.812,��쐼,1.9,��
